This is the latest recevied weather packets stored in our database for station/object KA3BQE-13. If no packets are shown the sender has not sent any weather packets the latest 10 day(s).
| Time | Temp. | Humidity | Pressure | Rain* | Wind** | Luminosity | Snow |
|---|---|---|---|---|---|---|---|
| 1778096022 | 14.44° C | 47% | 1016.9 hPa | 0 mm | - | 528 W/m² | - |
| 1778095719 | 14.44° C | 48% | 1016.9 hPa | 0 mm | - | 427 W/m² | - |
| 1778095416 | 14.44° C | 48% | 1017 hPa | 0 mm | - | 513 W/m² | - |
| 1778095113 | 13.89° C | 47% | 1017 hPa | 0 mm | - | 337 W/m² | - |
| 1778094809 | 14.44° C | 48% | 1017 hPa | 0 mm | - | 392 W/m² | - |
| 1778094506 | 14.44° C | 47% | 1017.1 hPa | 0 mm | - | 360 W/m² | - |
| 1778094202 | 14.44° C | 48% | 1017.1 hPa | 0 mm | - | 477 W/m² | - |
| 1778093899 | 15.56° C | 48% | 1017.1 hPa | 0 mm | - | 381 W/m² | - |
| 1778093596 | 13.89° C | 45% | 1016.9 hPa | 0 mm | - | 1109 W/m² | - |
| 1778093293 | 13.89° C | 48% | 1017 hPa | 0 mm | - | 581 W/m² | - |
| 1778092991 | 13.89° C | 46% | 1016.9 hPa | 0 mm | - | 284 W/m² | - |
| 1778092688 | 13.89° C | 50% | 1017 hPa | 0 mm | - | 385 W/m² | - |
| 1778092383 | 13.33° C | 47% | 1017 hPa | 0 mm | - | 293 W/m² | - |
| 1778092080 | 12.78° C | 49% | 1016.9 hPa | 0 mm | - | 281 W/m² | - |
| 1778091777 | 13.89° C | 49% | 1017 hPa | 0 mm | - | 316 W/m² | - |
| 1778091475 | 15° C | 45% | 1016.9 hPa | 0 mm | - | 382 W/m² | - |
| 1778091173 | 15.56° C | 41% | 1017 hPa | 0 mm | - | 982 W/m² | - |
| 1778090869 | 13.89° C | 51% | 1017 hPa | 0 mm | - | 970 W/m² | - |
| 1778090565 | 13.33° C | 50% | 1016.9 hPa | 0 mm | - | 1025 W/m² | - |
| 1778090262 | 13.89° C | 50% | 1017.3 hPa | 0 mm | - | 1017 W/m² | - |
| 1778089959 | 14.44° C | 47% | 1017.2 hPa | 0 mm | - | 223 W/m² | - |
| 1778089656 | 15° C | 54% | 1017.2 hPa | 0 mm | - | 911 W/m² | - |
| 1778089353 | 15.56° C | 52% | 1017.2 hPa | 0 mm | - | 883 W/m² | - |
| 1778089051 | 15° C | 46% | 1017.1 hPa | 0 mm | - | 875 W/m² | - |
| 1778088742 | 15° C | 52% | 1017.3 hPa | 0 mm | - | 887 W/m² | - |
* Rain latest hour (hover to see other rain measurements)
** Current wind speed in m/s (hover to see current wind gust speed)